This is the latest recevied weather packets stored in our database for station/object KC4GS-13. If no packets are shown the sender has not sent any weather packets the latest 10 day(s).
| Time | Temp. | Humidity | Pressure | Rain* | Wind** | Luminosity | Snow |
|---|---|---|---|---|---|---|---|
| 1787944928 | 29.44° C | 78% | 1017.8 hPa | 0 mm | - | 180 W/m² | - |
| 1787944627 | 29.44° C | 79% | 1018 hPa | 0 mm | - | 214 W/m² | - |
| 1787944322 | 29.44° C | 78% | 1018 hPa | 0 mm | - | 171 W/m² | - |
| 1787944018 | 29.44° C | 77% | 1018.1 hPa | 0 mm | - | 155 W/m² | - |
| 1787943713 | 30° C | 77% | 1017.8 hPa | 0 mm | - | 196 W/m² | - |
| 1787943408 | 29.44° C | 77% | 1018 hPa | 0 mm | - | 227 W/m² | - |
| 1787943103 | 29.44° C | 76% | 1018.3 hPa | 0 mm | - | 254 W/m² | - |
| 1787942797 | 29.44° C | 75% | 1018 hPa | 0 mm | - | 419 W/m² | - |
| 1787942492 | 29.44° C | 78% | 1018.4 hPa | 0 mm | - | 430 W/m² | - |
| 1787942186 | 29.44° C | 78% | 1018.3 hPa | 0 mm | - | 329 W/m² | - |
| 1787941881 | 28.89° C | 78% | 1018.2 hPa | 0 mm | - | 304 W/m² | - |
| 1787941575 | 28.89° C | 79% | 1018.4 hPa | 0 mm | - | 257 W/m² | - |
| 1787941270 | 28.89° C | 79% | 1018.6 hPa | 0 mm | - | 237 W/m² | - |
| 1787940970 | 28.89° C | 79% | 1018.6 hPa | 0 mm | - | 269 W/m² | - |
| 1787940669 | 28.89° C | 80% | 1018.8 hPa | 0 mm | - | 289 W/m² | - |
| 1787940367 | 28.89° C | 79% | 1018.8 hPa | 0 mm | - | 291 W/m² | - |
| 1787940067 | 28.89° C | 79% | 1018.9 hPa | 0 mm | - | 306 W/m² | - |
| 1787939761 | 28.33° C | 80% | 1018.8 hPa | 0 mm | - | 292 W/m² | - |
| 1787939455 | 28.89° C | 80% | 1018.9 hPa | 0 mm | - | 285 W/m² | - |
| 1787939150 | 28.33° C | 80% | 1019 hPa | 0 mm | - | 375 W/m² | - |
| 1787938850 | 28.89° C | 80% | 1018.9 hPa | 0 mm | - | 223 W/m² | - |
| 1787938543 | 28.33° C | 81% | 1019.2 hPa | 0 mm | - | 278 W/m² | - |
| 1787938239 | 28.33° C | 81% | 1019 hPa | 0 mm | - | 322 W/m² | - |
| 1787937934 | 28.33° C | 81% | 1018.9 hPa | 0 mm | - | 340 W/m² | - |
| 1787937630 | 28.33° C | 81% | 1018.9 hPa | 0 mm | - | 275 W/m² | - |
* Rain latest hour (hover to see other rain measurements)
** Current wind speed in m/s (hover to see current wind gust speed)